This demonstration page uses our WeatherBlox Daily Observations layout. Learn more.

Left ArrowRight Arrow

Hourly Observations for February 28, 2019

Temp ( °F °C ) Dew Point ( °F °C ) Humidity (%) Winds ( mph kmh ) Pressure ( in mb ) Visibility ( mi km ) Precip ( " mm )
6:30 am 06:30 Cloudy 28 -2 21 -6 74 74 N 10 17 30.23 1024 10 16 N/A
6:45 am 06:45 Cloudy 28 -2 21 -6 74 74 N 8 13 30.23 1024 10 16 N/A
7:45 am 07:45 Cloudy 28 -2 21 -6 74 74 NNE 9 15 30.23 1024 10 16 N/A
8:45 am 08:45 Cloudy 30 -1 19 -7 64 64 NE 13 20 30.24 1024 10 16 N/A
9:45 am 09:45 Cloudy 30 -1 19 -7 64 64 ENE 12 19 30.25 1024 10 16 N/A
10:45 am 10:45 Cloudy 32 0 19 -7 60 60 ENE 9 15 30.23 1024 10 16 N/A
11:45 am 11:45 Cloudy 34 1 19 -7 56 56 ENE 12 19 30.19 1022 10 16 N/A
12:45 pm 12:45 Cloudy 34 1 19 -7 56 56 ESE 8 13 30.19 1022 10 16 N/A
1:45 pm 13:45 Cloudy 34 1 21 -6 60 60 NE 8 13 30.17 1022 10 16 N/A
2:51 pm 14:51 Cloudy with Light Rain 34 1 23 -5 65 65 ENE 9 15 30.15 1021 7 11 N/A
3:22 pm 15:22 Cloudy with Light Snow 34 1 25 -4 70 70 NNE 9 15 30.16 1021 4 6 N/A
3:50 pm 15:50 Cloudy with Light Snow 32 0 25 -4 75 75 NNE 9 15 30.17 1022 3 5 N/A
4:52 pm 16:52 Cloudy with Light Snow 32 0 27 -3 80 80 NE 10 17 30.15 1021 3 5 N/A
5:24 pm 17:24 Cloudy with Light Snow 30 -1 27 -3 86 86 NE 9 15 30.16 1021 2 3 N/A
5:52 pm 17:52 Cloudy with Light Snow 30 -1 27 -3 86 86 NE 8 13 30.16 1021 2 3 N/A
6:05 pm 18:05 Cloudy with Light Snow 30 -1 27 -3 86 86 NNE 9 15 30.16 1021 3 5 N/A
6:32 pm 18:32 Mostly Cloudy with Mist and Fog 30 -1 27 -3 86 86 NE 9 15 30.14 1021 5 8 N/A
6:51 pm 18:51 Cloudy with Mist and Fog 30 -1 27 -3 86 86 NE 9 15 30.15 1021 5 8 N/A
7:59 pm 19:59 Cloudy with Light Snow 30 -1 27 -3 86 86 NE 12 19 30.15 1021 7 11 N/A
8:55 pm 20:55 Cloudy 30 -1 27 -3 86 86 E 10 17 30.15 1021 7 11 N/A
9:48 pm 21:48 Cloudy 30 -1 27 -3 86 86 ENE 9 15 30.17 1022 7 11 N/A

Powered by AerisWeather